K6OUA-11 Weather Reports


Display with metric or nautical units.
time (UTC)temp
F
wind
direction
speed
MPH
gust
MPH
rain 1hr
in
rain 24hr
in
rain mn
in
humidity
%
barometer
mb
20200928183348 100 0 11.0 21.0 0.00 0.00 0.00 10 1007.2
20200928183051 100 0 6.0 17.0 0.00 0.00 0.00 12 1007.2
20200928182751 100 0 15.0 16.0 0.00 0.00 0.00 10 1007.3
20200928182443 100 0 7.0 21.0 0.00 0.00 0.00 11 1007.2
20200928182149 100 0 21.0 21.0 0.00 0.00 0.00 11 1007.0
20200928181900 100 0 18.0 20.0 0.00 0.00 0.00 10 1007.1
20200928181244 100 0 5.0 20.0 0.00 0.00 0.00 12 1007.3
20200928180342 100 0 13.0 18.0 0.00 0.00 0.00 13 1007.4
20200928180036 99 0 11.0 14.0 0.00 0.00 0.00 14 1007.4
20200928175733 99 0 2.0 14.0 0.00 0.00 0.00 17 1007.3
20200928175432 99 0 5.0 28.0 0.00 0.00 0.00 15 1007.1
20200928175134 99 0 13.0 21.0 0.00 0.00 0.00 15 1007.1
20200928174831 99 0 10.0 21.0 0.00 0.00 0.00 14 1007.2
20200928173928 98 45 9.0 14.0 0.00 0.00 0.00 17 1007.1
20200928173625 97 0 10.0 17.0 0.00 0.00 0.00 18 1007.0
20200928173326 97 0 8.0 13.0 0.00 0.00 0.00 19 1007.4
20200928172723 95 0 9.0 18.0 0.00 0.00 0.00 22 1007.2
20200928172422 94 0 6.0 17.0 0.00 0.00 0.00 27 1007.2
20200928171821 91 0 2.0 11.0 0.00 0.00 0.00 33 1007.3
20200928171519 89 0 6.0 15.0 0.00 0.00 0.00 30 1007.1
20200928171220 87 4 13.0 19.0 0.00 0.00 0.00 34 1006.8
20200928170920 85 0 4.0 19.0 0.00 0.00 0.00 40 1007.3
20200928170616 83 0 16.0 19.0 0.00 0.00 0.00 38 1007.1
20200928170316 80 0 5.0 14.0 0.00 0.00 0.00 51 1007.2
20200928165715 76 9 5.0 9.0 0.00 0.00 0.00 72 1007.1
20200928165412 75 270 9.0 9.0 0.00 0.00 0.00 78 1007.2
20200928164808 74 225 5.0 11.0 0.00 0.00 0.00 80 1007.3
20200928163939 72 225 3.0 6.0 0.00 0.00 0.00 84 1007.3
20200928163608 72 225 5.0 6.0 0.00 0.00 0.00 84 1007.4
20200928163305 72 225 1.0 8.0 0.00 0.00 0.00 85 1007.4
20200928163008 72 225 4.0 6.0 0.00 0.00 0.00 86 1007.3
20200928162702 71 225 4.0 5.0 0.00 0.00 0.00 87 1007.2
20200928162059 70 225 3.0 6.0 0.00 0.00 0.00 89 1007.2
20200928160547 69 0 3.0 6.0 0.00 0.00 0.00 93 1007.1
20200928160250 68 22 4.0 5.0 0.00 0.00 0.00 95 1007.0
20200928155949 67 45 0.0 5.0 0.00 0.00 0.00 96 1007.2
20200928155644 67 45 2.0 2.0 0.00 0.00 0.00 97 1007.1
20200928155135 65 45 1.0 3.0 0.00 0.00 0.00 97 1007.1
20200928155043 65 45 1.0 3.0 0.00 0.00 0.00 97 1007.1
20200928154748 65 22 2.0 3.0 0.00 0.00 0.00 97 1007.3
20200928154441 64 22 1.0 3.0 0.00 0.00 0.00 97 1007.0
20200928154145 63 45 3.0 3.0 0.00 0.00 0.00 98 1007.0
20200928153537 63 45 2.0 2.0 0.00 0.00 0.00 97 1007.1
20200928153238 62 45 1.0 2.0 0.00 0.00 0.00 97 1007.2
20200928152934 62 45 0.0 2.0 0.00 0.00 0.00 97 1007.2
20200928152339 62 45 0.0 3.0 0.00 0.00 0.00 96 1006.8
20200928152033 62 45 1.0 3.0 0.00 0.00 0.00 97 1006.8
20200928151734 62 45 0.0 1.0 0.00 0.00 0.00 97 1006.9
20200928150824 62 45 2.0 3.0 0.00 0.00 0.00 97 1007.0
20200928150521 62 45 0.0 1.0 0.00 0.00 0.00 97 1006.9
20200928145318 61 45 1.0 1.0 0.00 0.00 0.00 97 1007.0
20200928145015 61 45 0.0 1.0 0.00 0.00 0.00 97 1006.9
20200928144717 61 45 0.0 2.0 0.00 0.00 0.00 97 1006.9
20200928144112 60 45 0.0 1.0 0.00 0.00 0.00 97 1007.0
20200928143810 60 45 0.0 1.0 0.00 0.00 0.00 97 1007.0
20200928143208 60 45 1.0 1.0 0.00 0.00 0.00 97 1006.9
20200928142907 60 45 1.0 1.0 0.00 0.00 0.00 96 1006.9
20200928142606 60 45 0.0 0.0 0.00 0.00 0.00 96 1006.9
20200928142311 60 45 0.0 1.0 0.00 0.00 0.00 96 1006.9
20200928142006 60 45 0.0 2.0 0.00 0.00 0.00 96 1006.8
20200928141706 60 45 1.0 2.0 0.00 0.00 0.00 96 1006.8
20200928141403 60 45 1.0 1.0 0.00 0.00 0.00 96 1006.8
20200928141100 60 45 0.0 0.0 0.00 0.00 0.00 95 1006.7
20200928140500 60 45 1.0 1.0 0.00 0.00 0.00 96 1006.7
20200928140200 60 45 0.0 1.0 0.00 0.00 0.00 96 1006.7
20200928135858 60 45 0.0 1.0 0.00 0.00 0.00 96 1006.5
20200928135557 60 45 0.0 1.0 0.00 0.00 0.00 96 1006.5
20200928134956 60 45 0.0 2.0 0.00 0.00 0.00 96 1006.6
20200928134653 60 45 0.0 3.0 0.00 0.00 0.00 96 1006.7
20200928134358 60 45 0.0 2.0 0.00 0.00 0.00 95 1006.5
20200928134050 60 45 0.0 1.0 0.00 0.00 0.00 95 1006.5
20200928133753 60 45 0.0 0.0 0.00 0.00 0.00 95 1006.6
20200928133449 60 45 0.0 1.0 0.00 0.00 0.00 95 1006.5
20200928133146 60 45 0.0 0.0 0.00 0.00 0.00 95 1006.5
20200928132848 60 45 0.0 0.0 0.00 0.00 0.00 96 1006.6
20200928132545 60 45 0.0 1.0 0.00 0.00 0.00 96 1006.5
20200928132250 60 45 0.0 1.0 0.00 0.00 0.00 95 1006.4
20200928131944 60 45 0.0 0.0 0.00 0.00 0.00 96 1006.3
20200928131356 60 45 0.0 1.0 0.00 0.00 0.00 95 1006.3
20200928131042 60 45 0.0 1.0 0.00 0.00 0.00 96 1006.2
20200928130439 60 45 0.0 1.0 0.00 0.00 0.00 95 1006.2
20200928130141 60 45 0.0 1.0 0.00 0.00 0.00 95 1006.2
20200928125836 60 45 1.0 1.0 0.00 0.00 0.00 95 1006.1
20200928125231 60 45 0.0 1.0 0.00 0.00 0.00 96 1005.9
20200928124930 60 45 1.0 1.0 0.00 0.00 0.00 95 1006.1
20200928124333 61 45 0.0 0.0 0.00 0.00 0.00 95 1005.9
20200928124031 61 45 0.0 0.0 0.00 0.00 0.00 95 1006.0
20200928123727 61 45 0.0 0.0 0.00 0.00 0.00 95 1006.0
20200928123425 61 45 0.0 0.0 0.00 0.00 0.00 95 1005.9
20200928122824 61 45 0.0 2.0 0.00 0.00 0.00 95 1006.0
20200928122525 61 45 0.0 1.0 0.00 0.00 0.00 95 1005.9
20200928122223 61 45 0.0 2.0 0.00 0.00 0.00 95 1006.0
20200928121924 61 45 1.0 2.0 0.00 0.00 0.00 95 1005.7
20200928121618 61 45 0.0 2.0 0.00 0.00 0.00 95 1005.6
20200928121317 61 45 1.0 2.0 0.00 0.00 0.00 95 1005.8
20200928120716 61 45 1.0 3.0 0.00 0.00 0.00 95 1005.8
20200928120417 61 45 2.0 3.0 0.00 0.00 0.00 95 1005.8
20200928120114 61 45 2.0 3.0 0.00 0.00 0.00 95 1005.7
20200928115811 61 45 2.0 2.0 0.00 0.00 0.00 95 1005.8
20200928115513 61 45 1.0 2.0 0.00 0.00 0.00 95 1005.6
20200928115209 61 45 1.0 2.0 0.00 0.00 0.00 95 1005.7
20200928114908 61 45 1.0 3.0 0.00 0.00 0.00 95 1005.6
20200928114613 62 45 1.0 3.0 0.00 0.00 0.00 95 1005.7
20200928114309 62 45 0.0 2.0 0.00 0.00 0.00 95 1005.5
20200928114027 61 45 2.0 2.0 0.00 0.00 0.00 95 1005.5
20200928113102 62 45 0.0 1.0 0.00 0.00 0.00 95 1005.7
20200928112806 62 45 0.0 1.0 0.00 0.00 0.00 95 1005.6
20200928112505 62 45 0.0 1.0 0.00 0.00 0.00 95 1005.6
20200928112200 62 45 0.0 1.0 0.00 0.00 0.00 95 1005.6
20200928111858 62 45 0.0 1.0 0.00 0.00 0.00 95 1005.5
20200928110955 62 45 0.0 1.0 0.00 0.00 0.00 95 1005.5
20200928110655 62 45 0.0 1.0 0.00 0.00 0.00 95 1005.6
20200928110051 62 45 0.0 0.0 0.00 0.00 0.00 95 1005.7
20200928105450 62 45 0.0 0.0 0.00 0.00 0.00 95 1005.7
20200928105150 62 45 0.0 0.0 0.00 0.00 0.00 95 1005.9
20200928104847 62 45 0.0 0.0 0.00 0.00 0.00 95 1005.5
20200928104545 62 45 0.0 0.0 0.00 0.00 0.00 95 1005.6
20200928104247 62 45 0.0 1.0 0.00 0.00 0.00 95 1005.6
20200928103947 62 45 0.0 1.0 0.00 0.00 0.00 95 1005.6
20200928103644 62 45 0.0 1.0 0.00 0.00 0.00 95 1005.6
20200928103342 62 45 0.0 1.0 0.00 0.00 0.00 95 1005.5
20200928103041 62 45 0.0 0.0 0.00 0.00 0.00 95 1005.6
20200928102742 62 45 0.0 1.0 0.00 0.00 0.00 95 1005.8
20200928102138 62 45 0.0 0.0 0.00 0.00 0.00 95 1005.7
20200928101835 62 45 0.0 1.0 0.00 0.00 0.00 95 1005.7
20200928101534 62 45 0.0 1.0 0.00 0.00 0.00 95 1005.8
20200928100932 62 45 0.0 1.0 0.00 0.00 0.00 95 1005.9
20200928100028 62 45 0.0 1.0 0.00 0.00 0.00 95 1006.0
20200928095727 62 45 0.0 1.0 0.00 0.00 0.00 95 1005.9
20200928095426 62 45 0.0 1.0 0.00 0.00 0.00 95 1006.0
20200928095126 61 45 0.0 1.0 0.00 0.00 0.00 95 1006.0
20200928094826 61 45 0.0 1.0 0.00 0.00 0.00 95 1006.0
20200928094224 61 45 1.0 3.0 0.00 0.00 0.00 95 1006.2
20200928093620 61 45 3.0 3.0 0.00 0.00 0.00 95 1006.2
20200928093322 62 45 1.0 2.0 0.00 0.00 0.00 95 1006.4
20200928092720 62 45 1.0 1.0 0.00 0.00 0.00 94 1006.4
20200928092417 62 45 1.0 1.0 0.00 0.00 0.00 94 1006.3
20200928092117 62 45 0.0 3.0 0.00 0.00 0.00 95 1006.3
20200928091815 62 180 1.0 3.0 0.00 0.00 0.00 95 1006.4
20200928091516 62 270 1.0 2.0 0.00 0.00 0.00 94 1006.4
20200928091212 62 270 1.0 1.0 0.00 0.00 0.00 95 1006.5
20200928090911 62 270 0.0 1.0 0.00 0.00 0.00 94 1006.4
20200928090611 62 270 1.0 2.0 0.00 0.00 0.00 94 1006.5
20200928090015 62 270 0.0 2.0 0.00 0.00 0.00 94 1006.5
20200928085708 62 270 0.0 1.0 0.00 0.00 0.00 94 1006.6
20200928085106 62 270 0.0 2.0 0.00 0.00 0.00 94 1006.6
20200928084203 62 180 0.0 2.0 0.00 0.00 0.00 94 1006.9
20200928083859 62 180 1.0 2.0 0.00 0.00 0.00 94 1006.6
20200928083000 63 225 0.0 0.0 0.00 0.00 0.00 94 1006.9
20200928082654 62 225 0.0 0.0 0.00 0.00 0.00 94 1006.8
20200928082054 63 225 0.0 0.0 0.00 0.00 0.00 94 1006.9
20200928081753 62 225 0.0 0.0 0.00 0.00 0.00 94 1006.7
20200928080850 63 225 0.0 0.0 0.00 0.00 0.00 94 1006.8
20200928080546 63 225 0.0 0.0 0.00 0.00 0.00 94 1006.8
20200928075945 63 225 0.0 0.0 0.00 0.00 0.00 94 1007.0
20200928074740 63 225 0.0 3.0 0.00 0.00 0.00 94 1006.9
20200928074441 62 225 3.0 3.0 0.00 0.00 0.00 94 1006.6
20200928074139 62 225 2.0 2.0 0.00 0.00 0.00 94 1006.7
20200928073839 63 225 2.0 2.0 0.00 0.00 0.00 94 1006.8
20200928073536 63 225 3.0 3.0 0.00 0.00 0.00 94 1006.7
20200928073234 63 225 2.0 3.0 0.00 0.00 0.00 94 1006.8
20200928072634 63 225 3.0 3.0 0.00 0.00 0.00 93 1006.9
20200928072333 63 225 2.0 3.0 0.00 0.00 0.00 94 1006.8
20200928072034 63 225 0.0 1.0 0.00 0.00 0.00 94 1006.7
20200928071428 63 225 3.0 4.0 0.00 0.00 0.00 93 1006.8
20200928071126 63 225 3.0 3.0 0.00 0.00 0.00 93 1007.1
20200928070235 63 225 0.0 3.0 0.00 0.00 0.00 93 1006.5
20200928065621 63 225 0.0 1.0 0.00 0.00 0.00 93 1006.9
20200928065324 63 225 1.0 1.0 0.00 0.00 0.00 93 1006.8
20200928064720 63 225 0.0 0.0 0.00 0.00 0.00 92 1006.7
20200928064417 63 225 0.0 3.0 0.00 0.00 0.00 93 1006.6
20200928064115 63 225 1.0 3.0 0.00 0.00 0.00 93 1006.7
20200928063818 63 225 1.0 3.0 0.00 0.00 0.00 92 1006.8
20200928063515 63 225 1.0 2.0 0.00 0.00 0.00 93 1006.7
20200928063212 63 225 0.0 2.0 0.00 0.00 0.00 92 1006.8
20200928061707 63 225 0.0 1.0 0.00 0.00 0.00 92 1006.7
20200928061411 63 225 1.0 1.0 0.00 0.00 0.00 93 1006.7
20200928060808 63 225 2.0 2.0 0.00 0.00 0.00 92 1006.9
20200928060203 63 225 3.0 4.0 0.00 0.00 0.00 92 1006.9
20200928055904 63 225 2.0 4.0 0.00 0.00 0.00 92 1007.1
20200928055559 63 225 3.0 3.0 0.00 0.00 0.00 91 1006.6
20200928055258 63 225 0.0 3.0 0.00 0.00 0.00 91 1006.7
20200928055001 63 225 1.0 2.0 0.00 0.00 0.00 92 1006.6
20200928054700 63 225 2.0 2.0 0.00 0.00 0.00 92 1006.6
20200928054400 63 225 1.0 2.0 0.00 0.00 0.00 91 1006.5
20200928053755 62 225 2.0 3.0 0.00 0.00 0.00 91 1006.6
20200928053453 62 225 1.0 1.0 0.00 0.00 0.00 91 1006.4
20200928052850 62 225 0.0 1.0 0.00 0.00 0.00 91 1006.5
20200928052548 62 225 0.0 2.0 0.00 0.00 0.00 91 1006.5
20200928052249 62 225 1.0 2.0 0.00 0.00 0.00 91 1006.4
20200928051951 62 225 0.0 2.0 0.00 0.00 0.00 91 1006.5
20200928051646 62 225 0.0 2.0 0.00 0.00 0.00 90 1006.4
20200928050742 62 225 1.0 2.0 0.00 0.00 0.00 89 1006.4
20200928050442 62 225 0.0 0.0 0.00 0.00 0.00 89 1006.4
20200928050141 62 225 0.0 1.0 0.00 0.00 0.00 89 1006.6
20200928045840 62 225 0.0 2.0 0.00 0.00 0.00 90 1006.3
20200928045540 63 225 1.0 2.0 0.00 0.00 0.00 90 1006.3
20200928045236 63 225 1.0 2.0 0.00 0.00 0.00 90 1006.3
20200928044935 63 225 1.0 2.0 0.00 0.00 0.00 89 1006.2
20200928044334 63 225 2.0 3.0 0.00 0.00 0.00 89 1006.6
20200928043734 63 225 2.0 3.0 0.00 0.00 0.00 89 1006.3
20200928043431 63 225 3.0 3.0 0.00 0.00 0.00 88 1005.9
20200928043129 63 225 1.0 2.0 0.00 0.00 0.00 88 1006.5
20200928042828 63 225 1.0 2.0 0.00 0.00 0.00 88 1006.3
20200928042526 63 225 1.0 2.0 0.00 0.00 0.00 88 1006.2
20200928042230 63 225 2.0 3.0 0.00 0.00 0.00 87 1006.1
20200928041925 63 225 2.0 3.0 0.00 0.00 0.00 87 1005.9
20200928041625 63 225 1.0 2.0 0.00 0.00 0.00 87 1006.2
20200928041322 63 270 0.0 2.0 0.00 0.00 0.00 86 1006.0
20200928041021 63 270 2.0 2.0 0.00 0.00 0.00 86 1006.0
20200928040121 63 225 0.0 2.0 0.00 0.00 0.00 86 1006.0
20200928035816 64 225 2.0 2.0 0.00 0.00 0.00 85 1006.1
20200928035516 64 225 1.0 2.0 0.00 0.00 0.00 85 1006.1
20200928035215 64 225 2.0 2.0 0.00 0.00 0.00 85 1005.8
20200928034613 64 225 2.0 2.0 0.00 0.00 0.00 84 1006.0
20200928034010 64 225 1.0 3.0 0.00 0.00 0.00 84 1005.8
20200928033710 64 225 2.0 2.0 0.00 0.00 0.00 83 1005.9
20200928033407 64 225 1.0 2.0 0.00 0.00 0.00 82 1005.8
20200928033106 65 225 2.0 2.0 0.00 0.00 0.00 82 1005.9
20200928032808 65 225 1.0 1.0 0.00 0.00 0.00 82 1005.7
20200928032507 65 225 1.0 1.0 0.00 0.00 0.00 82 1005.6
20200928032205 65 225 0.0 1.0 0.00 0.00 0.00 82 1005.7
20200928031601 65 225 1.0 2.0 0.00 0.00 0.00 82 1005.6
20200928031304 65 225 1.0 2.0 0.00 0.00 0.00 82 1005.6
20200928031000 66 225 2.0 2.0 0.00 0.00 0.00 81 1005.5
20200928030658 66 225 1.0 1.0 0.00 0.00 0.00 82 1005.5
20200928030356 66 225 1.0 2.0 0.00 0.00 0.00 81 1005.6
20200928025754 66 225 1.0 2.0 0.00 0.00 0.00 81 1005.4
20200928025454 66 225 2.0 2.0 0.00 0.00 0.00 80 1005.3
20200928024851 66 225 1.0 2.0 0.00 0.00 0.00 80 1005.2
20200928024554 67 225 2.0 2.0 0.00 0.00 0.00 80 1005.2
20200928024248 67 225 0.0 2.0 0.00 0.00 0.00 79 1005.1
20200928023947 67 225 1.0 2.0 0.00 0.00 0.00 79 1005.1
20200928023648 67 225 1.0 1.0 0.00 0.00 0.00 78 1004.9
20200928023349 67 225 1.0 2.0 0.00 0.00 0.00 78 1004.9
20200928023046 67 225 1.0 1.0 0.00 0.00 0.00 77 1004.9
20200928022743 67 225 0.0 2.0 0.00 0.00 0.00 77 1004.8
20200928022442 68 225 1.0 2.0 0.00 0.00 0.00 77 1005.0
20200928021540 68 247 1.0 2.0 0.00 0.00 0.00 76 1005.0
20200928020938 69 247 1.0 2.0 0.00 0.00 0.00 76 1005.0
20200928020643 69 247 1.0 3.0 0.00 0.00 0.00 75 1005.0
20200928020338 69 247 2.0 3.0 0.00 0.00 0.00 75 1005.0
20200928020034 69 247 2.0 2.0 0.00 0.00 0.00 75 1004.9
20200928015736 69 225 2.0 2.0 0.00 0.00 0.00 74 1005.0
20200928014530 70 270 3.0 4.0 0.00 0.00 0.00 73 1004.8
20200928014227 71 247 2.0 3.0 0.00 0.00 0.00 72 1004.7
20200928013926 71 247 2.0 3.0 0.00 0.00 0.00 72 1004.8
20200928013624 71 270 2.0 4.0 0.00 0.00 0.00 71 1004.8
20200928013324 71 247 4.0 4.0 0.00 0.00 0.00 71 1004.7
20200928013029 72 247 1.0 3.0 0.00 0.00 0.00 70 1004.8
20200928012421 72 225 3.0 3.0 0.00 0.00 0.00 69 1004.8
20200928012122 73 225 3.0 3.0 0.00 0.00 0.00 68 1004.9
20200928011819 73 225 1.0 3.0 0.00 0.00 0.00 68 1004.7
20200928011519 73 225 2.0 3.0 0.00 0.00 0.00 68 1004.7
20200928010917 74 225 1.0 3.0 0.00 0.00 0.00 66 1004.7
20200928010021 75 225 2.0 4.0 0.00 0.00 0.00 66 1004.8
20200928005710 75 225 4.0 4.0 0.00 0.00 0.00 65 1004.7
20200928005110 75 225 2.0 6.0 0.00 0.00 0.00 64 1004.6
20200928004808 76 225 3.0 4.0 0.00 0.00 0.00 64 1004.7
20200928004514 76 243 3.0 4.0 0.00 0.00 0.00 64 1004.6
20200928004205 76 225 3.0 4.0 0.00 0.00 0.00 63 1004.5
20200928003906 77 225 3.0 5.0 0.00 0.00 0.00 62 1004.6
20200928003602 77 225 3.0 7.0 0.00 0.00 0.00 62 1004.7
20200928003008 78 225 2.0 6.0 0.00 0.00 0.00 61 1004.7
20200928002658 78 225 4.0 6.0 0.00 0.00 0.00 61 1004.8
20200928002400 78 225 1.0 4.0 0.00 0.00 0.00 61 1004.7
20200928002100 79 225 2.0 10.0 0.00 0.00 0.00 60 1004.6
20200928001454 79 225 3.0 5.0 0.00 0.00 0.00 59 1004.6
20200928001154 79 227 5.0 5.0 0.00 0.00 0.00 58 1004.6
20200928000857 80 225 3.0 6.0 0.00 0.00 0.00 58 1004.6
20200928000551 81 225 4.0 6.0 0.00 0.00 0.00 58 1004.7
20200928000305 81 225 3.0 4.0 0.00 0.00 0.00 57 1004.7
20200927235950 81 225 3.0 6.0 0.00 0.00 0.00 57 1004.5
20200927235349 82 225 3.0 5.0 0.00 0.00 0.00 56 1004.6
20200927235045 82 225 4.0 4.0 0.00 0.00 0.00 56 1004.6
20200927234745 82 225 4.0 4.0 0.00 0.00 0.00 56 1004.8
20200927234451 83 225 4.0 4.0 0.00 0.00 0.00 56 1005.0
20200927234143 83 225 3.0 5.0 0.00 0.00 0.00 55 1004.7
20200927233842 83 225 4.0 5.0 0.00 0.00 0.00 55 1004.8
20200927233543 83 225 3.0 5.0 0.00 0.00 0.00 55 1004.9
20200927232939 83 225 3.0 6.0 0.00 0.00 0.00 55 1004.8
20200927232637 83 225 3.0 6.0 0.00 0.00 0.00 55 1004.8
20200927232044 83 234 3.0 7.0 0.00 0.00 0.00 55 1004.7
20200927231436 83 225 3.0 5.0 0.00 0.00 0.00 55 1004.8
20200927231131 83 225 3.0 5.0 0.00 0.00 0.00 55 1004.8
20200927230832 84 225 3.0 6.0 0.00 0.00 0.00 54 1004.8
20200927230231 84 270 3.0 4.0 0.00 0.00 0.00 54 1004.7
20200927225929 84 243 3.0 5.0 0.00 0.00 0.00 54 1004.6
20200927225627 84 225 4.0 5.0 0.00 0.00 0.00 54 1004.8
20200927225325 85 225 3.0 7.0 0.00 0.00 0.00 53 1004.6
20200927224121 85 225 3.0 8.0 0.00 0.00 0.00 52 1004.7
20200927223519 85 202 2.0 5.0 0.00 0.00 0.00 52 1004.7
20200927223219 85 202 5.0 5.0 0.00 0.00 0.00 52 1004.8
20200927221411 86 180 3.0 7.0 0.00 0.00 0.00 52 1004.9
20200927220811 86 180 4.0 4.0 0.00 0.00 0.00 52 1005.0
20200927220508 86 180 3.0 5.0 0.00 0.00 0.00 52 1005.0
20200927215603 87 180 5.0 6.0 0.00 0.00 0.00 50 1004.9
20200927215009 87 180 9.0 11.0 0.00 0.00 0.00 51 1004.9
20200927214701 88 180 4.0 6.0 0.00 0.00 0.00 51 1005.1
20200927214401 88 180 4.0 6.0 0.00 0.00 0.00 51 1005.1
20200927214103 88 180 3.0 6.0 0.00 0.00 0.00 51 1005.1
20200927213458 88 180 2.0 5.0 0.00 0.00 0.00 50 1005.1
20200927213156 88 180 3.0 6.0 0.00 0.00 0.00 50 1005.1
20200927212554 88 180 3.0 5.0 0.00 0.00 0.00 51 1005.2
20200927211952 88 180 2.0 7.0 0.00 0.00 0.00 50 1005.2
20200927211345 88 180 3.0 5.0 0.00 0.00 0.00 51 1005.3
20200927210743 88 180 3.0 5.0 0.00 0.00 0.00 50 1005.3
20200927210443 88 180 3.0 8.0 0.00 0.00 0.00 50 1005.3
20200927205839 88 180 1.0 5.0 0.00 0.00 0.00 51 1005.4
20200927205539 88 180 3.0 5.0 0.00 0.00 0.00 51 1005.3
20200927204940 88 180 2.0 5.0 0.00 0.00 0.00 52 1005.5
20200927204635 88 180 2.0 4.0 0.00 0.00 0.00 52 1005.6
20200927204334 88 180 4.0 5.0 0.00 0.00 0.00 52 1005.6
20200927204032 88 180 5.0 7.0 0.00 0.00 0.00 52 1005.5
20200927203732 88 180 3.0 8.0 0.00 0.00 0.00 53 1005.6
20200927203430 87 180 2.0 5.0 0.00 0.00 0.00 52 1005.5
20200927203131 87 180 1.0 5.0 0.00 0.00 0.00 53 1005.6
20200927202827 87 180 2.0 6.0 0.00 0.00 0.00 53 1005.7
20200927201925 86 180 2.0 5.0 0.00 0.00 0.00 54 1005.8
20200927201622 86 180 3.0 5.0 0.00 0.00 0.00 54 1005.8
20200927201325 86 180 2.0 6.0 0.00 0.00 0.00 54 1006.0
20200927201021 86 180 6.0 6.0 0.00 0.00 0.00 55 1006.0
20200927200419 85 180 4.0 5.0 0.00 0.00 0.00 54 1006.0
20200927200116 85 180 3.0 6.0 0.00 0.00 0.00 56 1006.0
20200927195817 85 180 4.0 6.0 0.00 0.00 0.00 56 1006.1
20200927195519 85 180 1.0 5.0 0.00 0.00 0.00 56 1006.1
20200927194914 84 180 1.0 4.0 0.00 0.00 0.00 58 1006.2
20200927193708 83 180 1.0 5.0 0.00 0.00 0.00 59 1006.4
20200927192509 82 180 1.0 5.0 0.00 0.00 0.00 61 1006.4
20200927191300 81 180 2.0 7.0 0.00 0.00 0.00 62 1006.6
20200927191006 81 180 2.0 6.0 0.00 0.00 0.00 64 1006.7
20200927190700 81 180 3.0 4.0 0.00 0.00 0.00 64 1006.8
20200927190355 80 180 2.0 4.0 0.00 0.00 0.00 65 1006.7
20200927190101 79 180 1.0 4.0 0.00 0.00 0.00 66 1006.7
20200927185758 79 180 3.0 3.0 0.00 0.00 0.00 66 1006.8
20200927185453 79 180 1.0 5.0 0.00 0.00 0.00 67 1006.7
20200927185153 78 180 3.0 7.0 0.00 0.00 0.00 67 1006.8
20200927184858 78 180 3.0 7.0 0.00 0.00 0.00 67 1006.6